| time (UTC) | temp F | wind direction | speed MPH | gust MPH | rain 1hr in | rain 24hr in | rain mn in | humidity % | barometer mb |
| 20260831231013 | 97 | 170 | 6.0 | 9.0 | 0.00 | 0.00 | 0.00 | 19 | 1014.0 |
| 20260831230513 | 98 | 171 | 4.0 | 9.0 | 0.00 | 0.00 | 0.00 | 19 | 1014.0 |
| 20260831230014 | 98 | 263 | 4.0 | 9.0 | 0.00 | 0.00 | 0.00 | 19 | 1014.1 |
| 20260831225511 | 98 | 207 | 4.0 | 10.0 | 0.00 | 0.00 | 0.00 | 19 | 1014.2 |
| 20260831225011 | 98 | 212 | 6.0 | 10.0 | 0.00 | 0.00 | 0.00 | 19 | 1014.2 |
| 20260831224510 | 98 | 181 | 6.0 | 10.0 | 0.00 | 0.00 | 0.00 | 19 | 1014.2 |
| 20260831224010 | 98 | 211 | 6.0 | 10.0 | 0.00 | 0.00 | 0.00 | 20 | 1014.3 |
| 20260831223509 | 97 | 215 | 6.0 | 10.0 | 0.00 | 0.00 | 0.00 | 18 | 1014.4 |
| 20260831223009 | 98 | 200 | 6.0 | 13.0 | 0.00 | 0.00 | 0.00 | 15 | 1014.5 |
| 20260831222509 | 98 | 170 | 5.0 | 13.0 | 0.00 | 0.00 | 0.00 | 16 | 1014.6 |
| 20260831222008 | 99 | 232 | 7.0 | 11.0 | 0.00 | 0.00 | 0.00 | 17 | 1014.6 |
| 20260831221520 | 99 | 142 | 2.0 | 11.0 | 0.00 | 0.00 | 0.00 | 17 | 1014.6 |
| 20260831221010 | 99 | 173 | 7.0 | 14.0 | 0.00 | 0.00 | 0.00 | 15 | 1014.6 |
| 20260831220509 | 99 | 218 | 7.0 | 14.0 | 0.00 | 0.00 | 0.00 | 15 | 1014.6 |
| 20260831220008 | 99 | 211 | 6.0 | 13.0 | 0.00 | 0.00 | 0.00 | 15 | 1014.7 |
| 20260831215506 | 99 | 161 | 6.0 | 13.0 | 0.00 | 0.00 | 0.00 | 16 | 1014.8 |
| 20260831215006 | 99 | 123 | 5.0 | 11.0 | 0.00 | 0.00 | 0.00 | 16 | 1014.9 |
| 20260831214504 | 99 | 172 | 6.0 | 11.0 | 0.00 | 0.00 | 0.00 | 19 | 1015.0 |
| 20260831214004 | 99 | 165 | 7.0 | 15.0 | 0.00 | 0.00 | 0.00 | 18 | 1015.0 |
| 20260831213502 | 99 | 198 | 8.0 | 15.0 | 0.00 | 0.00 | 0.00 | 18 | 1015.2 |
| 20260831213003 | 100 | 246 | 5.0 | 11.0 | 0.00 | 0.00 | 0.00 | 18 | 1015.2 |
| 20260831212502 | 100 | 219 | 5.0 | 12.0 | 0.00 | 0.00 | 0.00 | 18 | 1015.3 |
| 20260831212102 | 99 | 211 | 5.0 | 12.0 | 0.00 | 0.00 | 0.00 | 19 | 1015.4 |
| 20260831211601 | 99 | 175 | 3.0 | 11.0 | 0.00 | 0.00 | 0.00 | 19 | 1015.4 |
| 20260831211058 | 99 | 216 | 6.0 | 12.0 | 0.00 | 0.00 | 0.00 | 19 | 1015.6 |
| 20260831210559 | 98 | 174 | 7.0 | 12.0 | 0.00 | 0.00 | 0.00 | 20 | 1015.6 |
| 20260831210100 | 98 | 147 | 4.0 | 11.0 | 0.00 | 0.00 | 0.00 | 21 | 1015.6 |
| 20260831205601 | 97 | 200 | 5.0 | 9.0 | 0.00 | 0.00 | 0.00 | 21 | 1015.8 |
| 20260831205058 | 96 | 267 | 1.0 | 7.0 | 0.00 | 0.00 | 0.00 | 22 | 1015.8 |
| 20260831204558 | 97 | 292 | 2.0 | 7.0 | 0.00 | 0.00 | 0.00 | 22 | 1015.9 |
| 20260831204057 | 98 | 169 | 0.0 | 9.0 | 0.00 | 0.00 | 0.00 | 21 | 1016.1 |
| 20260831203557 | 99 | 111 | 4.0 | 9.0 | 0.00 | 0.00 | 0.00 | 22 | 1016.2 |
| 20260831203104 | 98 | 202 | 4.0 | 10.0 | 0.00 | 0.00 | 0.00 | 21 | 1016.3 |
| 20260831202556 | 98 | 195 | 5.0 | 10.0 | 0.00 | 0.00 | 0.00 | 21 | 1016.4 |
| 20260831202056 | 98 | 226 | 5.0 | 10.0 | 0.00 | 0.00 | 0.00 | 21 | 1016.5 |
| 20260831201557 | 98 | 281 | 5.0 | 11.0 | 0.00 | 0.00 | 0.00 | 21 | 1016.6 |
| 20260831201056 | 98 | 238 | 5.0 | 11.0 | 0.00 | 0.00 | 0.00 | 21 | 1016.6 |
| 20260831200557 | 98 | 225 | 5.0 | 8.0 | 0.00 | 0.00 | 0.00 | 21 | 1016.7 |
| 20260831200059 | 98 | 29 | 1.0 | 7.0 | 0.00 | 0.00 | 0.00 | 21 | 1016.7 |
| 20260831195555 | 98 | 312 | 4.0 | 7.0 | 0.00 | 0.00 | 0.00 | 21 | 1016.7 |
| 20260831195057 | 97 | 51 | 0.0 | 8.0 | 0.00 | 0.00 | 0.00 | 22 | 1016.8 |
| 20260831194624 | 97 | 171 | 3.0 | 8.0 | 0.00 | 0.00 | 0.00 | 21 | 1016.9 |
| 20260831194056 | 98 | 238 | 4.0 | 7.0 | 0.00 | 0.00 | 0.00 | 21 | 1017.0 |
| 20260831193557 | 98 | 178 | 1.0 | 5.0 | 0.00 | 0.00 | 0.00 | 22 | 1017.0 |
| 20260831193057 | 97 | 42 | 0.0 | 5.0 | 0.00 | 0.00 | 0.00 | 23 | 1017.1 |
| 20260831192553 | 96 | 32 | 2.0 | 6.0 | 0.00 | 0.00 | 0.00 | 23 | 1017.1 |
| 20260831192053 | 96 | 8 | 2.0 | 6.0 | 0.00 | 0.00 | 0.00 | 21 | 1017.1 |
| 20260831191553 | 97 | 7 | 2.0 | 7.0 | 0.00 | 0.00 | 0.00 | 22 | 1017.2 |
| 20260831191054 | 96 | 153 | 2.0 | 7.0 | 0.00 | 0.00 | 0.00 | 22 | 1017.3 |
| 20260831190553 | 96 | 207 | 3.0 | 5.0 | 0.00 | 0.00 | 0.00 | 22 | 1017.3 |
| 20260831190114 | 95 | 188 | 2.0 | 6.0 | 0.00 | 0.00 | 0.00 | 22 | 1017.3 |
| 20260831185552 | 95 | 166 | 2.0 | 7.0 | 0.00 | 0.00 | 0.00 | 23 | 1017.4 |
| 20260831185050 | 96 | 161 | 3.0 | 7.0 | 0.00 | 0.00 | 0.00 | 22 | 1017.5 |
| 20260831184559 | 96 | 252 | 2.0 | 8.0 | 0.00 | 0.00 | 0.00 | 23 | 1017.4 |
| 20260831184049 | 96 | 213 | 4.0 | 8.0 | 0.00 | 0.00 | 0.00 | 24 | 1017.5 |
| 20260831183548 | 95 | 306 | 3.0 | 6.0 | 0.00 | 0.00 | 0.00 | 22 | 1017.6 |
| 20260831183046 | 95 | 109 | 0.0 | 4.0 | 0.00 | 0.00 | 0.00 | 23 | 1017.6 |
| 20260831182547 | 94 | 66 | 0.0 | 4.0 | 0.00 | 0.00 | 0.00 | 23 | 1017.7 |
| 20260831182045 | 93 | 27 | 0.0 | 5.0 | 0.00 | 0.00 | 0.00 | 24 | 1017.7 |
| 20260831181548 | 94 | 352 | 1.0 | 7.0 | 0.00 | 0.00 | 0.00 | 24 | 1017.7 |
| 20260831181042 | 94 | 323 | 2.0 | 7.0 | 0.00 | 0.00 | 0.00 | 24 | 1017.8 |
| 20260831180542 | 93 | 238 | 1.0 | 4.0 | 0.00 | 0.00 | 0.00 | 24 | 1017.9 |
| 20260831180042 | 93 | 329 | 1.0 | 6.0 | 0.00 | 0.00 | 0.00 | 25 | 1017.9 |
| 20260831175540 | 93 | 227 | 4.0 | 7.0 | 0.00 | 0.00 | 0.00 | 25 | 1017.9 |
| 20260831175040 | 93 | 159 | 1.0 | 7.0 | 0.00 | 0.00 | 0.00 | 25 | 1017.9 |
| 20260831174540 | 92 | 140 | 3.0 | 7.0 | 0.00 | 0.00 | 0.00 | 25 | 1017.9 |
| 20260831174042 | 92 | 143 | 3.0 | 7.0 | 0.00 | 0.00 | 0.00 | 25 | 1018.0 |
| 20260831173537 | 92 | 271 | 2.0 | 5.0 | 0.00 | 0.00 | 0.00 | 25 | 1018.0 |
| 20260831173037 | 92 | 350 | 1.0 | 5.0 | 0.00 | 0.00 | 0.00 | 26 | 1018.1 |
| 20260831172533 | 92 | 329 | 1.0 | 5.0 | 0.00 | 0.00 | 0.00 | 26 | 1018.1 |
| 20260831172033 | 91 | 357 | 1.0 | 5.0 | 0.00 | 0.00 | 0.00 | 26 | 1018.1 |
| 20260831171531 | 91 | 3 | 0.0 | 6.0 | 0.00 | 0.00 | 0.00 | 26 | 1018.1 |
| 20260831171030 | 91 | 321 | 3.0 | 6.0 | 0.00 | 0.00 | 0.00 | 26 | 1018.1 |
| 20260831170531 | 91 | 348 | 0.0 | 2.0 | 0.00 | 0.00 | 0.00 | 27 | 1018.2 |
| 20260831170029 | 90 | 348 | 0.0 | 6.0 | 0.00 | 0.00 | 0.00 | 27 | 1018.2 |
| 20260831165527 | 90 | 281 | 3.0 | 6.0 | 0.00 | 0.00 | 0.00 | 27 | 1018.3 |
| 20260831165027 | 90 | 25 | 1.0 | 5.0 | 0.00 | 0.00 | 0.00 | 28 | 1018.3 |
| 20260831164526 | 89 | 202 | 2.0 | 6.0 | 0.00 | 0.00 | 0.00 | 28 | 1018.3 |
| 20260831164025 | 89 | 173 | 2.0 | 6.0 | 0.00 | 0.00 | 0.00 | 28 | 1018.3 |
| 20260831163525 | 89 | 248 | 4.0 | 6.0 | 0.00 | 0.00 | 0.00 | 29 | 1018.3 |
| 20260831163024 | 88 | 209 | 2.0 | 6.0 | 0.00 | 0.00 | 0.00 | 29 | 1018.3 |
| 20260831162523 | 88 | 208 | 2.0 | 5.0 | 0.00 | 0.00 | 0.00 | 30 | 1018.4 |
| 20260831162022 | 87 | 250 | 2.0 | 5.0 | 0.00 | 0.00 | 0.00 | 30 | 1018.4 |
| 20260831161520 | 87 | 281 | 1.0 | 6.0 | 0.00 | 0.00 | 0.00 | 30 | 1018.4 |
| 20260831161019 | 86 | 297 | 3.0 | 6.0 | 0.00 | 0.00 | 0.00 | 31 | 1018.3 |
| 20260831160519 | 86 | 327 | 1.0 | 6.0 | 0.00 | 0.00 | 0.00 | 31 | 1018.3 |
| 20260831160020 | 86 | 286 | 3.0 | 5.0 | 0.00 | 0.00 | 0.00 | 32 | 1018.2 |
| 20260831155519 | 85 | 330 | 1.0 | 7.0 | 0.00 | 0.00 | 0.00 | 33 | 1018.2 |
| 20260831155016 | 85 | 238 | 2.0 | 7.0 | 0.00 | 0.00 | 0.00 | 33 | 1018.3 |
| 20260831154523 | 85 | 319 | 2.0 | 7.0 | 0.00 | 0.00 | 0.00 | 33 | 1018.2 |
| 20260831154014 | 84 | 294 | 2.0 | 6.0 | 0.00 | 0.00 | 0.00 | 34 | 1018.2 |
| 20260831153512 | 84 | 271 | 1.0 | 5.0 | 0.00 | 0.00 | 0.00 | 34 | 1018.2 |
| 20260831153016 | 84 | 295 | 1.0 | 5.0 | 0.00 | 0.00 | 0.00 | 33 | 1018.1 |
| 20260831152512 | 84 | 286 | 2.0 | 5.0 | 0.00 | 0.00 | 0.00 | 34 | 1018.2 |
| 20260831152012 | 84 | 294 | 2.0 | 5.0 | 0.00 | 0.00 | 0.00 | 34 | 1018.1 |
| 20260831151511 | 83 | 286 | 1.0 | 5.0 | 0.00 | 0.00 | 0.00 | 35 | 1018.1 |
| 20260831151011 | 82 | 310 | 0.0 | 5.0 | 0.00 | 0.00 | 0.00 | 36 | 1018.1 |
| 20260831150511 | 82 | 348 | 2.0 | 5.0 | 0.00 | 0.00 | 0.00 | 35 | 1018.0 |
| 20260831150010 | 82 | 354 | 2.0 | 5.0 | 0.00 | 0.00 | 0.00 | 36 | 1018.0 |
| 20260831145508 | 81 | 355 | 2.0 | 7.0 | 0.00 | 0.00 | 0.00 | 37 | 1018.0 |
| 20260831145012 | 81 | 333 | 2.0 | 7.0 | 0.00 | 0.00 | 0.00 | 37 | 1018.1 |
| 20260831144508 | 81 | 1 | 2.0 | 6.0 | 0.00 | 0.00 | 0.00 | 37 | 1018.0 |
| 20260831144009 | 81 | 316 | 1.0 | 6.0 | 0.00 | 0.00 | 0.00 | 37 | 1018.0 |
| 20260831143507 | 80 | 1 | 1.0 | 5.0 | 0.00 | 0.00 | 0.00 | 37 | 1017.9 |
| 20260831143008 | 80 | 346 | 1.0 | 5.0 | 0.00 | 0.00 | 0.00 | 38 | 1017.9 |
| 20260831142504 | 79 | 359 | 0.0 | 5.0 | 0.00 | 0.00 | 0.00 | 39 | 1017.8 |
| 20260831142003 | 79 | 46 | 0.0 | 4.0 | 0.00 | 0.00 | 0.00 | 39 | 1017.9 |
| 20260831141501 | 78 | 10 | 1.0 | 4.0 | 0.00 | 0.00 | 0.00 | 40 | 1017.9 |
| 20260831141100 | 78 | 45 | 1.0 | 4.0 | 0.00 | 0.00 | 0.00 | 40 | 1017.9 |
| 20260831140558 | 77 | 22 | 1.0 | 4.0 | 0.00 | 0.00 | 0.00 | 41 | 1017.8 |
| 20260831140058 | 77 | 36 | 0.0 | 4.0 | 0.00 | 0.00 | 0.00 | 42 | 1017.8 |
| 20260831135556 | 76 | 50 | 1.0 | 3.0 | 0.00 | 0.00 | 0.00 | 42 | 1017.8 |
| 20260831135056 | 76 | 23 | 0.0 | 3.0 | 0.00 | 0.00 | 0.00 | 42 | 1017.7 |
| 20260831134606 | 75 | 49 | 0.0 | 2.0 | 0.00 | 0.00 | 0.00 | 43 | 1017.7 |
| 20260831134054 | 75 | 49 | 0.0 | 2.0 | 0.00 | 0.00 | 0.00 | 44 | 1017.6 |
| 20260831133553 | 74 | 49 | 0.0 | 4.0 | 0.00 | 0.00 | 0.00 | 44 | 1017.5 |
| 20260831133104 | 74 | 51 | 0.0 | 4.0 | 0.00 | 0.00 | 0.00 | 44 | 1017.4 |
| 20260831132552 | 73 | 71 | 0.0 | 5.0 | 0.00 | 0.00 | 0.00 | 44 | 1017.4 |
| 20260831132055 | 73 | 63 | 1.0 | 6.0 | 0.00 | 0.00 | 0.00 | 44 | 1017.4 |
| 20260831131557 | 73 | 69 | 1.0 | 3.0 | 0.00 | 0.00 | 0.00 | 44 | 1017.2 |
| 20260831131048 | 73 | 69 | 0.0 | 5.0 | 0.00 | 0.00 | 0.00 | 45 | 1017.1 |
| 20260831130548 | 73 | 69 | 1.0 | 5.0 | 0.00 | 0.00 | 0.00 | 44 | 1017.0 |
| 20260831130047 | 74 | 70 | 1.0 | 4.0 | 0.00 | 0.00 | 0.00 | 44 | 1017.0 |
| 20260831125547 | 74 | 71 | 0.0 | 4.0 | 0.00 | 0.00 | 0.00 | 43 | 1016.9 |
| 20260831125046 | 74 | 71 | 1.0 | 4.0 | 0.00 | 0.00 | 0.00 | 43 | 1016.9 |
| 20260831124546 | 73 | 78 | 1.0 | 2.0 | 0.00 | 0.00 | 0.00 | 43 | 1016.9 |
| 20260831124049 | 73 | 78 | 0.0 | 2.0 | 0.00 | 0.00 | 0.00 | 45 | 1016.8 |
| 20260831123544 | 73 | 78 | 0.0 | 2.0 | 0.00 | 0.00 | 0.00 | 46 | 1016.7 |
| 20260831123043 | 73 | 78 | 0.0 | 2.0 | 0.00 | 0.00 | 0.00 | 46 | 1016.7 |
| 20260831122544 | 73 | 78 | 0.0 | 2.0 | 0.00 | 0.00 | 0.00 | 45 | 1016.6 |
| 20260831122041 | 73 | 78 | 0.0 | 2.0 | 0.00 | 0.00 | 0.00 | 45 | 1016.5 |
| 20260831121545 | 73 | 78 | 0.0 | 2.0 | 0.00 | 0.00 | 0.00 | 45 | 1016.5 |
| 20260831121041 | 74 | 78 | 0.0 | 2.0 | 0.00 | 0.00 | 0.00 | 45 | 1016.5 |
| 20260831120543 | 74 | 78 | 0.0 | 2.0 | 0.00 | 0.00 | 0.00 | 44 | 1016.5 |
| 20260831120043 | 74 | 78 | 0.0 | 2.0 | 0.00 | 0.00 | 0.00 | 44 | 1016.6 |
| 20260831115538 | 74 | 64 | 0.0 | 4.0 | 0.00 | 0.00 | 0.00 | 44 | 1016.6 |
| 20260831115037 | 74 | 64 | 0.0 | 4.0 | 0.00 | 0.00 | 0.00 | 44 | 1016.6 |
| 20260831114537 | 75 | 64 | 1.0 | 4.0 | 0.00 | 0.00 | 0.00 | 42 | 1016.6 |
| 20260831114036 | 75 | 71 | 1.0 | 5.0 | 0.00 | 0.00 | 0.00 | 42 | 1016.6 |
| 20260831113537 | 75 | 74 | 1.0 | 5.0 | 0.00 | 0.00 | 0.00 | 42 | 1016.7 |
| 20260831113034 | 75 | 128 | 1.0 | 3.0 | 0.00 | 0.00 | 0.00 | 43 | 1016.8 |
| 20260831112533 | 75 | 179 | 0.0 | 4.0 | 0.00 | 0.00 | 0.00 | 43 | 1016.8 |
| 20260831112032 | 75 | 179 | 0.0 | 4.0 | 0.00 | 0.00 | 0.00 | 42 | 1016.7 |
| 20260831111531 | 75 | 179 | 1.0 | 5.0 | 0.00 | 0.00 | 0.00 | 42 | 1016.7 |
| 20260831111031 | 75 | 271 | 2.0 | 5.0 | 0.00 | 0.00 | 0.00 | 42 | 1016.7 |
| 20260831110532 | 76 | 197 | 1.0 | 4.0 | 0.00 | 0.00 | 0.00 | 41 | 1016.7 |
| 20260831110029 | 76 | 196 | 0.0 | 4.0 | 0.00 | 0.00 | 0.00 | 40 | 1016.6 |
| 20260831105530 | 76 | 190 | 2.0 | 4.0 | 0.00 | 0.00 | 0.00 | 40 | 1016.7 |
| 20260831105027 | 76 | 170 | 0.0 | 6.0 | 0.00 | 0.00 | 0.00 | 40 | 1016.6 |
| 20260831104531 | 77 | 170 | 0.0 | 7.0 | 0.00 | 0.00 | 0.00 | 39 | 1016.6 |
| 20260831104026 | 78 | 338 | 2.0 | 7.0 | 0.00 | 0.00 | 0.00 | 37 | 1016.5 |
| 20260831103525 | 78 | 306 | 2.0 | 6.0 | 0.00 | 0.00 | 0.00 | 38 | 1016.5 |
| 20260831103027 | 78 | 324 | 2.0 | 6.0 | 0.00 | 0.00 | 0.00 | 38 | 1016.4 |
| 20260831102524 | 77 | 303 | 1.0 | 4.0 | 0.00 | 0.00 | 0.00 | 39 | 1016.3 |
| 20260831102026 | 77 | 339 | 0.0 | 2.0 | 0.00 | 0.00 | 0.00 | 40 | 1016.3 |
| 20260831101524 | 78 | 339 | 1.0 | 2.0 | 0.00 | 0.00 | 0.00 | 40 | 1016.3 |
| 20260831101022 | 78 | 339 | 0.0 | 2.0 | 0.00 | 0.00 | 0.00 | 38 | 1016.2 |
| 20260831100522 | 78 | 339 | 0.0 | 2.0 | 0.00 | 0.00 | 0.00 | 39 | 1016.1 |
| 20260831100022 | 78 | 327 | 0.0 | 1.0 | 0.00 | 0.00 | 0.00 | 40 | 1016.0 |
| 20260831095624 | 78 | 327 | 0.0 | 0.0 | 0.00 | 0.00 | 0.00 | 40 | 1016.0 |
| 20260831095021 | 78 | 327 | 0.0 | 0.0 | 0.00 | 0.00 | 0.00 | 40 | 1016.0 |
| 20260831094534 | 79 | 327 | 0.0 | 1.0 | 0.00 | 0.00 | 0.00 | 39 | 1015.9 |
| 20260831094020 | 79 | 327 | 0.0 | 1.0 | 0.00 | 0.00 | 0.00 | 38 | 1015.8 |
| 20260831093518 | 79 | 327 | 0.0 | 0.0 | 0.00 | 0.00 | 0.00 | 38 | 1015.8 |
| 20260831093025 | 80 | 327 | 0.0 | 4.0 | 0.00 | 0.00 | 0.00 | 37 | 1015.8 |
| 20260831092519 | 80 | 327 | 0.0 | 4.0 | 0.00 | 0.00 | 0.00 | 37 | 1015.8 |
| 20260831092016 | 80 | 327 | 0.0 | 4.0 | 0.00 | 0.00 | 0.00 | 36 | 1015.8 |
| 20260831091533 | 80 | 303 | 0.0 | 2.0 | 0.00 | 0.00 | 0.00 | 37 | 1015.8 |
| 20260831091016 | 80 | 281 | 0.0 | 1.0 | 0.00 | 0.00 | 0.00 | 38 | 1015.8 |
| 20260831090517 | 80 | 281 | 0.0 | 1.0 | 0.00 | 0.00 | 0.00 | 36 | 1015.8 |
| 20260831090015 | 81 | 281 | 0.0 | 1.0 | 0.00 | 0.00 | 0.00 | 36 | 1015.8 |
| 20260831085514 | 81 | 281 | 0.0 | 1.0 | 0.00 | 0.00 | 0.00 | 35 | 1015.9 |
| 20260831085012 | 82 | 281 | 0.0 | 2.0 | 0.00 | 0.00 | 0.00 | 35 | 1015.8 |
| 20260831084536 | 82 | 281 | 0.0 | 2.0 | 0.00 | 0.00 | 0.00 | 34 | 1015.7 |
| 20260831084012 | 82 | 281 | 0.0 | 2.0 | 0.00 | 0.00 | 0.00 | 34 | 1015.7 |
| 20260831083511 | 82 | 281 | 0.0 | 2.0 | 0.00 | 0.00 | 0.00 | 34 | 1015.8 |
| 20260831083012 | 82 | 281 | 0.0 | 2.0 | 0.00 | 0.00 | 0.00 | 35 | 1015.8 |
| 20260831082511 | 82 | 281 | 0.0 | 4.0 | 0.00 | 0.00 | 0.00 | 34 | 1015.7 |
| 20260831082011 | 83 | 281 | 0.0 | 4.0 | 0.00 | 0.00 | 0.00 | 34 | 1015.8 |
| 20260831081511 | 83 | 276 | 0.0 | 6.0 | 0.00 | 0.00 | 0.00 | 33 | 1015.8 |
| 20260831081011 | 84 | 210 | 2.0 | 8.0 | 0.00 | 0.00 | 0.00 | 33 | 1015.8 |
| 20260831080510 | 86 | 187 | 3.0 | 7.0 | 0.00 | 0.00 | 0.00 | 31 | 1015.8 |
| 20260831080025 | 86 | 38 | 3.0 | 9.0 | 0.00 | 0.00 | 0.00 | 28 | 1015.6 |
| 20260831075508 | 84 | 42 | 3.0 | 9.0 | 0.00 | 0.00 | 0.00 | 33 | 1015.6 |
| 20260831075007 | 83 | 63 | 3.0 | 8.0 | 0.00 | 0.00 | 0.00 | 38 | 1016.0 |
| 20260831074518 | 83 | 77 | 0.0 | 4.0 | 0.00 | 0.00 | 0.00 | 33 | 1016.2 |
| 20260831074006 | 83 | 96 | 1.0 | 3.0 | 0.00 | 0.00 | 0.00 | 32 | 1016.2 |
| 20260831073508 | 83 | 341 | 1.0 | 4.0 | 0.00 | 0.00 | 0.00 | 33 | 1016.3 |
| 20260831073004 | 83 | 315 | 0.0 | 4.0 | 0.00 | 0.00 | 0.00 | 32 | 1016.3 |
| 20260831072507 | 83 | 313 | 0.0 | 6.0 | 0.00 | 0.00 | 0.00 | 32 | 1016.3 |
| 20260831072004 | 84 | 327 | 2.0 | 6.0 | 0.00 | 0.00 | 0.00 | 31 | 1016.3 |
| 20260831071503 | 84 | 334 | 3.0 | 6.0 | 0.00 | 0.00 | 0.00 | 31 | 1016.3 |
| 20260831071004 | 84 | 3 | 1.0 | 6.0 | 0.00 | 0.00 | 0.00 | 31 | 1016.3 |
| 20260831070504 | 84 | 9 | 3.0 | 8.0 | 0.00 | 0.00 | 0.00 | 30 | 1016.3 |
| 20260831070002 | 85 | 357 | 3.0 | 9.0 | 0.00 | 0.00 | 0.00 | 30 | 1016.3 |
| 20260831065504 | 85 | 360 | 4.0 | 9.0 | 0.00 | 0.00 | 0.00 | 29 | 1016.2 |
| 20260831065101 | 85 | 344 | 4.0 | 9.0 | 0.00 | 0.00 | 0.00 | 29 | 1016.3 |
| 20260831064601 | 85 | 341 | 6.0 | 10.0 | 0.00 | 0.00 | 0.00 | 29 | 1016.4 |
| 20260831064059 | 84 | 1 | 4.0 | 10.0 | 0.00 | 0.00 | 0.00 | 29 | 1016.4 |
| 20260831063557 | 84 | 1 | 1.0 | 10.0 | 0.00 | 0.00 | 0.00 | 28 | 1016.5 |
| 20260831063109 | 84 | 3 | 6.0 | 10.0 | 0.00 | 0.00 | 0.00 | 28 | 1016.5 |
| 20260831062559 | 84 | 11 | 2.0 | 5.0 | 0.00 | 0.00 | 0.00 | 27 | 1016.5 |
| 20260831062055 | 83 | 21 | 0.0 | 4.0 | 0.00 | 0.00 | 0.00 | 28 | 1016.5 |
| 20260831061553 | 83 | 9 | 0.0 | 4.0 | 0.00 | 0.00 | 0.00 | 30 | 1016.5 |
| 20260831061052 | 82 | 331 | 0.0 | 2.0 | 0.00 | 0.00 | 0.00 | 31 | 1016.3 |
| 20260831060550 | 82 | 331 | 0.0 | 2.0 | 0.00 | 0.00 | 0.00 | 32 | 1016.4 |
| 20260831060050 | 82 | 331 | 0.0 | 2.0 | 0.00 | 0.00 | 0.00 | 33 | 1016.3 |
| 20260831055551 | 82 | 345 | 0.0 | 2.0 | 0.00 | 0.00 | 0.00 | 31 | 1016.3 |
| 20260831055048 | 83 | 345 | 0.0 | 2.0 | 0.00 | 0.00 | 0.00 | 31 | 1016.3 |
| 20260831054549 | 83 | 344 | 0.0 | 2.0 | 0.00 | 0.00 | 0.00 | 31 | 1016.3 |
| 20260831054049 | 83 | 344 | 0.0 | 2.0 | 0.00 | 0.00 | 0.00 | 31 | 1016.3 |
| 20260831053549 | 83 | 342 | 0.0 | 1.0 | 0.00 | 0.00 | 0.00 | 30 | 1016.3 |
| 20260831053058 | 83 | 342 | 0.0 | 1.0 | 0.00 | 0.00 | 0.00 | 32 | 1016.3 |
| 20260831052548 | 83 | 342 | 0.0 | 0.0 | 0.00 | 0.00 | 0.00 | 32 | 1016.4 |
| 20260831052051 | 84 | 342 | 0.0 | 2.0 | 0.00 | 0.00 | 0.00 | 30 | 1016.4 |
| 20260831051550 | 84 | 342 | 0.0 | 4.0 | 0.00 | 0.00 | 0.00 | 30 | 1016.5 |
| 20260831051048 | 84 | 342 | 2.0 | 4.0 | 0.00 | 0.00 | 0.00 | 30 | 1016.4 |
| 20260831050547 | 84 | 327 | 1.0 | 5.0 | 0.00 | 0.00 | 0.00 | 30 | 1016.4 |
| 20260831050047 | 85 | 357 | 1.0 | 5.0 | 0.00 | 0.00 | 0.00 | 30 | 1016.4 |
| 20260831045547 | 85 | 355 | 2.0 | 5.0 | 0.00 | 0.00 | 0.00 | 30 | 1016.5 |
| 20260831045047 | 84 | 313 | 0.0 | 7.0 | 0.00 | 0.00 | 0.00 | 30 | 1016.5 |
| 20260831044547 | 84 | 276 | 4.0 | 7.0 | 0.00 | 0.00 | 0.00 | 30 | 1016.5 |
| 20260831044047 | 84 | 120 | 0.0 | 1.0 | 0.00 | 0.00 | 0.00 | 28 | 1016.3 |
| 20260831043548 | 84 | 120 | 0.0 | 1.0 | 0.00 | 0.00 | 0.00 | 28 | 1016.3 |
| 20260831043050 | 84 | 120 | 0.0 | 1.0 | 0.00 | 0.00 | 0.00 | 28 | 1016.2 |
| 20260831042546 | 84 | 120 | 0.0 | 1.0 | 0.00 | 0.00 | 0.00 | 28 | 1016.2 |
| 20260831042046 | 84 | 120 | 0.0 | 1.0 | 0.00 | 0.00 | 0.00 | 28 | 1016.2 |
| 20260831041550 | 84 | 120 | 0.0 | 0.0 | 0.00 | 0.00 | 0.00 | 29 | 1016.2 |
| 20260831041046 | 84 | 120 | 0.0 | 1.0 | 0.00 | 0.00 | 0.00 | 28 | 1016.1 |
| 20260831040545 | 85 | 120 | 0.0 | 1.0 | 0.00 | 0.00 | 0.00 | 28 | 1016.2 |
| 20260831040045 | 85 | 120 | 0.0 | 2.0 | 0.00 | 0.00 | 0.00 | 28 | 1016.1 |
| 20260831035545 | 85 | 120 | 0.0 | 1.0 | 0.00 | 0.00 | 0.00 | 28 | 1016.1 |
| 20260831035044 | 85 | 120 | 0.0 | 1.0 | 0.00 | 0.00 | 0.00 | 28 | 1016.0 |
| 20260831034549 | 85 | 120 | 0.0 | 1.0 | 0.00 | 0.00 | 0.00 | 29 | 1016.0 |
| 20260831034045 | 86 | 120 | 0.0 | 1.0 | 0.00 | 0.00 | 0.00 | 28 | 1015.9 |
| 20260831033544 | 85 | 120 | 0.0 | 1.0 | 0.00 | 0.00 | 0.00 | 29 | 1015.8 |
| 20260831033048 | 86 | 120 | 0.0 | 1.0 | 0.00 | 0.00 | 0.00 | 29 | 1015.8 |
| 20260831032541 | 86 | 120 | 0.0 | 0.0 | 0.00 | 0.00 | 0.00 | 29 | 1015.7 |
| 20260831032041 | 86 | 120 | 0.0 | 1.0 | 0.00 | 0.00 | 0.00 | 28 | 1015.7 |
| 20260831031542 | 87 | 120 | 0.0 | 2.0 | 0.00 | 0.00 | 0.00 | 27 | 1015.6 |
| 20260831031044 | 87 | 120 | 0.0 | 4.0 | 0.00 | 0.00 | 0.00 | 27 | 1015.5 |
| 20260831030541 | 87 | 135 | 0.0 | 3.0 | 0.00 | 0.00 | 0.00 | 28 | 1015.5 |
| 20260831030048 | 87 | 157 | 0.0 | 1.0 | 0.00 | 0.00 | 0.00 | 28 | 1015.4 |
| 20260831025540 | 88 | 157 | 0.0 | 0.0 | 0.00 | 0.00 | 0.00 | 28 | 1015.3 |
| 20260831025043 | 88 | 157 | 0.0 | 4.0 | 0.00 | 0.00 | 0.00 | 28 | 1015.3 |
| 20260831024549 | 89 | 157 | 0.0 | 4.0 | 0.00 | 0.00 | 0.00 | 27 | 1015.2 |
| 20260831024040 | 89 | 157 | 0.0 | 1.0 | 0.00 | 0.00 | 0.00 | 28 | 1015.1 |
| 20260831023540 | 90 | 157 | 0.0 | 2.0 | 0.00 | 0.00 | 0.00 | 26 | 1015.1 |
| 20260831023039 | 90 | 157 | 0.0 | 2.0 | 0.00 | 0.00 | 0.00 | 25 | 1015.1 |
| 20260831022539 | 91 | 157 | 0.0 | 4.0 | 0.00 | 0.00 | 0.00 | 24 | 1015.0 |
| 20260831022039 | 92 | 157 | 1.0 | 5.0 | 0.00 | 0.00 | 0.00 | 23 | 1015.0 |
| 20260831021539 | 92 | 167 | 1.0 | 5.0 | 0.00 | 0.00 | 0.00 | 23 | 1015.0 |
| 20260831021039 | 92 | 160 | 2.0 | 6.0 | 0.00 | 0.00 | 0.00 | 23 | 1014.9 |
| 20260831020541 | 92 | 165 | 1.0 | 8.0 | 0.00 | 0.00 | 0.00 | 23 | 1014.9 |
| 20260831020039 | 92 | 171 | 4.0 | 8.0 | 0.00 | 0.00 | 0.00 | 22 | 1014.9 |
| 20260831015538 | 92 | 144 | 3.0 | 6.0 | 0.00 | 0.00 | 0.00 | 23 | 1014.9 |
| 20260831015038 | 92 | 171 | 1.0 | 5.0 | 0.00 | 0.00 | 0.00 | 22 | 1014.8 |
| 20260831014541 | 93 | 190 | 1.0 | 7.0 | 0.00 | 0.00 | 0.00 | 22 | 1014.8 |
| 20260831014040 | 93 | 179 | 4.0 | 7.0 | 0.00 | 0.00 | 0.00 | 22 | 1014.7 |
| 20260831013538 | 93 | 185 | 2.0 | 7.0 | 0.00 | 0.00 | 0.00 | 22 | 1014.8 |
| 20260831013040 | 93 | 179 | 2.0 | 5.0 | 0.00 | 0.00 | 0.00 | 22 | 1014.7 |
| 20260831012540 | 93 | 198 | 2.0 | 5.0 | 0.00 | 0.00 | 0.00 | 22 | 1014.7 |
| 20260831012040 | 94 | 180 | 3.0 | 7.0 | 0.00 | 0.00 | 0.00 | 21 | 1014.7 |
| 20260831011539 | 94 | 194 | 2.0 | 7.0 | 0.00 | 0.00 | 0.00 | 21 | 1014.6 |
| 20260831011037 | 94 | 214 | 2.0 | 7.0 | 0.00 | 0.00 | 0.00 | 21 | 1014.7 |
| 20260831010536 | 94 | 206 | 3.0 | 7.0 | 0.00 | 0.00 | 0.00 | 21 | 1014.6 |
| 20260831010039 | 94 | 186 | 4.0 | 7.0 | 0.00 | 0.00 | 0.00 | 21 | 1014.6 |
| 20260831005537 | 95 | 211 | 1.0 | 7.0 | 0.00 | 0.00 | 0.00 | 20 | 1014.7 |
| 20260831005037 | 95 | 219 | 2.0 | 7.0 | 0.00 | 0.00 | 0.00 | 21 | 1014.7 |
| 20260831004540 | 96 | 230 | 4.0 | 9.0 | 0.00 | 0.00 | 0.00 | 20 | 1014.8 |
| 20260831004037 | 96 | 225 | 4.0 | 9.0 | 0.00 | 0.00 | 0.00 | 20 | 1014.7 |
| 20260831003537 | 96 | 205 | 4.0 | 9.0 | 0.00 | 0.00 | 0.00 | 20 | 1014.8 |
| 20260831003035 | 96 | 202 | 4.0 | 7.0 | 0.00 | 0.00 | 0.00 | 20 | 1014.8 |
| 20260831002535 | 97 | 207 | 4.0 | 8.0 | 0.00 | 0.00 | 0.00 | 19 | 1014.7 |
| 20260831002038 | 97 | 204 | 4.0 | 9.0 | 0.00 | 0.00 | 0.00 | 19 | 1014.7 |
| 20260831001535 | 97 | 260 | 4.0 | 9.0 | 0.00 | 0.00 | 0.00 | 19 | 1014.6 |
| 20260831001035 | 97 | 165 | 2.0 | 8.0 | 0.00 | 0.00 | 0.00 | 19 | 1014.6 |
| 20260831000535 | 98 | 240 | 3.0 | 9.0 | 0.00 | 0.00 | 0.00 | 19 | 1014.6 |
| 20260831000035 | 97 | 134 | 3.0 | 9.0 | 0.00 | 0.00 | 0.00 | 18 | 1014.7 |
| 20260830235535 | 98 | 127 | 4.0 | 9.0 | 0.00 | 0.00 | 0.00 | 18 | 1014.7 |
| 20260830235038 | 98 | 94 | 4.0 | 9.0 | 0.00 | 0.00 | 0.00 | 18 | 1014.6 |
| 20260830234534 | 98 | 155 | 3.0 | 7.0 | 0.00 | 0.00 | 0.00 | 18 | 1014.7 |
| 20260830234035 | 99 | 101 | 2.0 | 6.0 | 0.00 | 0.00 | 0.00 | 18 | 1014.7 |
| 20260830233534 | 98 | 126 | 3.0 | 7.0 | 0.00 | 0.00 | 0.00 | 19 | 1014.7 |
| 20260830233032 | 98 | 184 | 3.0 | 9.0 | 0.00 | 0.00 | 0.00 | 18 | 1014.8 |
| 20260830232533 | 99 | 112 | 4.0 | 9.0 | 0.00 | 0.00 | 0.00 | 18 | 1014.8 |
| 20260830232033 | 98 | 128 | 5.0 | 9.0 | 0.00 | 0.00 | 0.00 | 18 | 1014.8 |
| 20260830231532 | 98 | 214 | 2.0 | 8.0 | 0.00 | 0.00 | 0.00 | 19 | 1014.8 |